Regional Weather Roundup
Issued by NWS

Home | Current Version | Previous Version | Text Only | Print | Product List | Glossary On
Versions: 1 2 3 4 5 6 7 8 9 10 11 12 13 14 15 16 17 18 19 20 21 22 23 24 25 26 27 28 29 30 31 32 33 34 35 36 37 38 39 40 41 42 43 44 45 46 47 48 49 50
000
ASUS42 KTBW 180317
RWRFL
FLORIDA REGIONAL WEATHER ROUNDUP
NATIONAL WEATHER SERVICE TAMPA BAY RUSKIN FL
1100 PM EDT THU AUG 17 2017

NOTE: "FAIR" INDICATES FEW OR NO CLOUDS BELOW 12,000 FEET WITH NO
SIGNIFICANT WEATHER AND/OR OBSTRUCTIONS TO VISIBILITY.

FLZ001>010-012>015-112-114-115-180400-
PANHANDLE FLORIDA

CITY           SKY/WX    TMP DP  RH WIND       PRES   REMARKS
PENSACOLA      CLEAR     85  77  77 SW6       30.03S HX  95
PENSACOLA NAS  PTCLDY    84  78  82 W5        30.02S HX  95
MILTON NAS     CLEAR     82  77  84 SW5       30.03
CRESTVIEW      CLEAR     80  77  90 CALM      30.05R
DUKE FIELD     PTCLDY    80  77  90 S5        30.03S
VALPARAISO     PTCLDY    84  77  80 SW5       30.02S
MARY ESTHER    CLEAR     85  75  72 SW5       30.01S
PANAMA CITY    FAIR      81  78  91 CALM      30.03R
TYNDALL AFB    CLOUDY    85  78  79 W8        30.04S HX  96
APALACHICOLA   PTCLDY    83  79  88 W5        30.04S

STATION/POSITION SKY/WX   TEMP    WIND        PRES    WAVE   SWELL
                          AIR SEA DIR/SP/G            HT/PER HT/PER
                          (F)     (DEG/KT/KT) (MB)    (FT/S) (FT/S)
30.1N   87.6W              86 87  230/  8/ 10 1016.6S   1/ 6
29.2N   88.2W              87 88  220/  6/  8 1017.4R   1/ 6   2/ 6
28.8N   86.0W              86 88  290/  4/  6 1017.7R   1/ 7   2/ 7
PANAMA CITY BEAC           86     280/ 10/ 12 1017.6R
TOWER C                    85                 1018.1R
28.5N   84.5W              86 87  290/  6/  8 1017.6R   1

$$
FLZ011-016>038-118-127-128-134-139-239-180400-
NORTH FLORIDA

CITY           SKY/WX    TMP DP  RH WIND       PRES   REMARKS
MARIANNA       CLEAR     82  79  90 SW5       30.03R
TALLAHASSEE    PTCLDY    83  77  82 CALM      30.03S
PERRY          PTCLDY    82  78  89 CALM      30.04S
LIVE OAK       MOCLDY    81  81 100 CALM      30.06R
CROSS CITY     PTCLDY    82  78  89 SW3       30.09S
LAKE CITY      FAIR      77  77 100 CALM      30.05S
GAINESVILLE    CLOUDY    76  74  93 CALM      30.08S
WILLISTON      CLEAR     79  79 100 CALM      30.06S
PALATKA        FAIR      73  73 100 CALM      30.07S
MAYPORT NAS    PTCLDY    80  78  94 SW3       30.04S
JACKSONVILLE   PTCLDY    79  77  94 W5        30.04R
JAX NAS        PTCLDY    82  77  84 SW5       30.05S
JAX CECIL      CLEAR     77  77 100 CALM      30.04F
FERNANDINA BEA FAIR      81  75  83 CALM      30.03S
ST AUGUSTINE   CLEAR     78  75  90 SW5       30.06S
PALM COAST     FAIR      76  76 100 CALM      30.06F

STATION/POSITION SKY/WX   TEMP    WIND        PRES    WAVE   SWELL
                          AIR SEA DIR/SP/G            HT/PER HT/PER
                          (F)     (DEG/KT/KT) (MB)    (FT/S) (FT/S)
SHELL POINT      NOT AVBL
KEATON BEACH               87     250/ 12/ 14 1016.8R
CEDAR KEY                  86     250/  4/  6 1017.9R
FERNANDINA                 83 87  270/  4/  6 1018.1R
30.7N   81.3W                 86                N/A     1/ 8
MAYPORT                    81 85  180/  3/  5 1017.7R
31.4N   80.9W              86 85  200/ 14/ 16 1016.5R   2/ 3
ST AUGUSTINE               78 82  190/  6/  7 1018.1R

$$
FLZ040-043>046-052-053-057-058-063-144-180400-
INTERIOR CENTRAL FLORIDA

CITY           SKY/WX    TMP DP  RH WIND       PRES   REMARKS
OCALA          CLOUDY    78  77  96 S3        30.07
THE VILLAGES     N/A     79  79 100 CALM      29.98S
LEESBURG       CLEAR     81  77  88 S9        30.08R
SANFORD        CLEAR     79  75  87 S7        30.06F
ORLANDO EXEC   CLEAR     77  76  96 SW6       30.07F
ORLANDO INTL   PTCLDY    75  75 100 SW5       30.07F
KISSIMMEE      PTCLDY    76  75  97 CALM      30.09S
WINTER HAVEN   PTCLDY    75  72  90 SW5       30.09F
LAKELAND         N/A     73  73 100 CALM      30.09F
BARTOW         FAIR      73 N/A N/A CALM      30.08F
SEBRING        FAIR      76  73  91 CALM      30.07S
OKEECHOBEE     CLEAR     72  72 100 CALM      30.08S

$$
FLZ041-047-054-059-064-141-147-180400-
EAST CENTRAL FLORIDA

CITY           SKY/WX    TMP DP  RH WIND       PRES   REMARKS
DAYTONA BEACH  CLEAR     79  78  97 S3        30.07S
DELAND         CLEAR     79  75  89 SW3       30.07R
JFK SPACE CTR  PTCLDY    79  77  95 SW3       30.06R
CAPE CANAVERAL PTCLDY    79  75  89 CALM      30.06S
PATRICK AFB    PTCLDY    79  73  82 SW6       30.06F
MELBOURNE      PTCLDY    77  72  84 S3        30.07S
VERO BEACH     CLEAR     78  72  81 CALM      30.07F
FT PIERCE      CLEAR     77  74  90 CALM      30.08S
STUART         PTCLDY    82  75  78 N5        30.09F

STATION/POSITION SKY/WX   TEMP    WIND        PRES    WAVE   SWELL
                          AIR SEA DIR/SP/G            HT/PER HT/PER
                          (F)     (DEG/KT/KT) (MB)    (FT/S) (FT/S)
28.5N   80.2W              83 86  230/ 14/ 17 1019.3R   2/ 8   2/ 8
28.9N   78.5W              85 85  160/ 12/ 14 1018.4R   2/ 8   2/ 8
TRIDENT PIER               80 85  210/  6/  7 1019.8F
28.4N   80.5W                 84                N/A     1/ 8
27.5N   80.2W                 84                N/A     1/ 9

$$
FLZ050-056-061-142-242-148-248-149-249-151-251-155-255-
160-260-180400-
WEST CENTRAL FLORIDA

CITY           SKY/WX    TMP DP  RH WIND       PRES   REMARKS
CRYSTAL RIVER  FAIR      79  77  94 CALM      30.06F
INVERNESS      FAIR      79  79 100 CALM      30.07F
BROOKSVILLE    NOT AVBL
CLEARWATER AIR MOCLDY    81  77  89 SE6       30.07S
ST PETE CLEARW CLOUDY    82  76  81 SE6       30.08R
TAMPA INTL     CLOUDY    81  76  84 E5        30.08R
TAMPA EXEC     CLOUDY    79  75  89 CALM      30.09S
PLANT CITY     CLOUDY    77  75  94 SE5       30.10F
MACDILL AFB    CLOUDY    80  80 100 SE7       30.07S
PETER O KNIGHT CLOUDY    81  81 100 E5        30.08F
ST PETERSBURG  CLOUDY    82  76  81 S10       30.06S
SARASOTA       LGT RAIN  77  74  90 SE8       30.06F
VENICE         DRIZZLE   79  75  89 NE8       30.07F

STATION/POSITION SKY/WX   TEMP    WIND        PRES    WAVE   SWELL
                          AIR SEA DIR/SP/G            HT/PER HT/PER
                          (F)     (DEG/KT/KT) (MB)    (FT/S) (FT/S)
CLEARWATER BEACH           86 91  140/  4/  5 1018.5R
MIDDLE TAMPA BAY           79     150/ 11/ 14 1018.5S
VENICE                     82 91   80/  7/  8 1018.7R

$$
FLZ066-069-070-075>078-162-262-165-265-180400-
SOUTHWEST FLORIDA AND KEYS

CITY           SKY/WX    TMP DP  RH WIND       PRES   REMARKS
PUNTA GORDA    LGT RAIN  78  75  90 E5        30.09R
FT MYERS       MOCLDY    78  77  96 NE5       30.06F
SOUTHWEST INTL PTCLDY    78  75  90 NE5       30.06F
NAPLES         PTCLDY    80  74  81 CALM      30.05F
MARCO ISLAND   CLEAR    N/A N/A N/A N6        30.06S
IMMOKALEE      FAIR      77  73  88 CALM      30.08S
MARATHON       CLEAR     87  74  64 E5        30.06R HX  95
KEY WEST NAS   CLOUDY    84  77  79 E8        30.06R
KEY WEST INTL  CLOUDY    86  76  71 E7        30.06R HX  96

STATION/POSITION SKY/WX   TEMP    WIND        PRES    WAVE   SWELL
                          AIR SEA DIR/SP/G            HT/PER HT/PER
                          (F)     (DEG/KT/KT) (MB)    (FT/S) (FT/S)
NAPLES                        92   50/  3/  4 1017.9F
DRY TORTUGAS               87      70/  4/  5 1017.8F
SAND KEY                   85                 1018.1S
MOLASSES REEF                      30/  4       N/A

$$
FLZ067-068-071>074-168-172>174-180400-
SOUTHEAST FLORIDA

CITY           SKY/WX    TMP DP  RH WIND       PRES   REMARKS
W PALM BEACH   CLOUDY    89  76  65 SE5       30.07S HX 100
BOCA RATON     CLEAR     84  75  74 SE6       30.07R
FT LAUDER-EXEC CLOUDY    85  77  77 SE6       30.07R HX  95
FT LAUDERDALE  CLOUDY    86  77  74 SE8       30.07R HX  97
POMPANO BEACH  CLOUDY    86  76  71 SE6       30.07R HX  96
PEMBROKE PINES CLOUDY    86  75  69 SE7       30.08S HX  95
OPA LOCKA      CLOUDY    86  77  74 E6        30.07S HX  97
MIAMI          CLOUDY    86  75  69 SE8       30.07S HX  95
WEST KENDALL   CLOUDY    85  75  72 E5        30.06F
HOMESTEAD      PTCLDY    83  78  86 CALM      30.06S

STATION/POSITION SKY/WX   TEMP    WIND        PRES    WAVE   SWELL
                          AIR SEA DIR/SP/G            HT/PER HT/PER
                          (F)     (DEG/KT/KT) (MB)    (FT/S) (FT/S)
PORT EVERGLADES            86     130/  4/  6 1018.4R
VIRGINIA KEY               86 92   90/  6/  7 1017.9R
LAKE WORTH                        120/  4/  4   N/A
FOWEY ROCKS                85 88   80/  7/  8 1018.7F
SETTLEMENT POINT           84     160/  4/  4 1018.8R

$$




USA.gov is the U.S. government's official web portal to all federal, state and local government web resources and services.